Home   Weather   Cottbus   Past weeks

Flag for Germany Past Weather in Cottbus, Brandenburg, Germany — Yesterday and Last 2 Weeks

52 °F

Light rain. Partly cloudy.

Feels Like: 49 °F
Forecast: 47 / 52 °F
Wind: 7 mph from Northwest

Location: Holzdorf

Current Time: Oct 28, 2016 at 11:38:05 PM

Latest Report: Oct 28, 2016 at 10:20 PM

Visibility: 6 mi

Pressure: 30.39 "Hg

Humidity: 94%

Dew Point: 50 °F

Location of CottbusLocation

Past Weather in Cottbus — Graph


Cottbus Temperature Yesterday

Maximum temperature yesterday: 54 °F (at 4:20 PM)
Minimum temperature yesterday: 36 °F (at 7:20 AM)
Average temperature yesterday: 45 °F

High & Low Weather Summary for the Past Weeks

High61 °F (Oct 16, 1:20 PM)100% (Oct 16, 2:20 AM)30.48 "Hg (Oct 16, 2:20 AM)
Low36 °F (Oct 27, 7:20 AM)58% (Oct 19, 4:20 PM)29.83 "Hg (Oct 15, 1:20 AM)
Average47 °F91%30.10 "Hg
* Reported Oct 13 10:20 PM — Oct 28 10:20 PM, Cottbus, Weather by CustomWeather, © 2016

Note: Actual official high and low records may vary slightly from our data, if they occured in-between our weather recording intervals... More about our weather records


Cottbus Weather History for the Previous 24 Hours

Scroll right to see more
Time TempWeatherWind HumidityBarometerVisibility
10:20 PM
Fri, Oct 28
52 °FLight rain. Partly cloudy.7 mph94%30.39 "Hg6 mi
9:20 PM54 °FPassing clouds.9 mph94%30.39 "Hg4 mi
8:20 PM54 °FDrizzle. Fog.12 mph88%30.39 "Hg3 mi
7:20 PM54 °FPassing clouds.13 mph88%30.39 "Hg6 mi
6:20 PM54 °FPartly cloudy.14 mph88%30.36 "Hg4 mi
5:20 PM54 °FBroken clouds.15 mph88%30.36 "Hg6 mi
4:20 PM54 °FPartly sunny.14 mph88%30.36 "Hg6 mi
4:04 PM54 °FPartly sunny.15 mph88%30.36 "Hg6 mi
3:20 PM54 °FLight rain. Partly sunny.14 mph82%30.36 "HgN/A
2:20 PM54 °FLight rain. Partly sunny.14 mph82%30.36 "HgN/A
1:20 PM54 °FPartly sunny.13 mph82%30.36 "HgN/A
12:20 PM54 °FBroken clouds.13 mph77%30.39 "HgN/A
11:20 AM52 °FLight rain. Partly sunny.10 mph82%30.39 "HgN/A
11:03 AM52 °FPartly sunny.12 mph82%30.39 "HgN/A
10:20 AM52 °FPartly sunny.12 mph82%30.39 "HgN/A
9:20 AM50 °FPartly sunny.12 mph82%30.39 "HgN/A
8:20 AM48 °FPartly sunny.8 mph87%30.39 "Hg6 mi
7:20 AM48 °FPassing clouds.8 mph87%30.39 "Hg4 mi
6:20 AM48 °FPassing clouds.9 mph87%30.39 "HgN/A
5:20 AM48 °FPassing clouds.8 mph87%30.42 "HgN/A
4:20 AM48 °FPassing clouds.8 mph87%30.42 "Hg6 mi
3:20 AM46 °FPassing clouds.7 mph100%30.42 "Hg5 mi
2:20 AM48 °FPassing clouds.7 mph94%30.45 "Hg4 mi
1:20 AM48 °FFog.7 mph94%30.45 "Hg2 mi
12:20 AM46 °FFog.6 mph100%30.45 "Hg2 mi
11:20 PM
Thu, Oct 27
48 °FFog.6 mph94%30.45 "Hg2 mi
Weather by CustomWeather, © 2016

See weather overviewHow to use our weather pages